Home   Weather   Arendal   Past weeks

Flag for Norway Past Weather in Arendal, Norway — Yesterday and Last 2 Weeks

Now
64 °F

Mild.


Feels Like: 64 °F
Forecast: 53 / 63 °F
Wind: 12 mph from Southeast

Location: Torungen Fyr

Current Time: Sep 25, 2016 at 9:18:26 PM

Latest Report: Sep 25, 2016 at 8:00 PM


Visibility: N/A

Pressure: 30.03 "Hg

Humidity: 84%

Dew Point: 59 °F

Location of ArendalLocation

Past Weather in Arendal — Graph

°F

Arendal Temperature Yesterday

Maximum temperature yesterday: 63 °F (at 10:00 PM)
Minimum temperature yesterday: 53 °F (at 2:00 AM)
Average temperature yesterday: 58 °F

High & Low Weather Summary for the Past Weeks

 TemperatureHumidityPressure
High68 °F (Sep 15, 4:00 PM)98% (Sep 17, 6:00 AM)30.26 "Hg (Sep 17, 6:00 AM)
Low52 °F (Sep 12, 8:00 AM)47% (Sep 11, 4:00 PM)29.69 "Hg (Sep 11, 6:00 AM)
Average61 °F86%30.11 "Hg
* Reported Sep 10 8:00 PM — Sep 25 8:00 PM, Arendal, Weather by CustomWeather, © 2016

Note: Actual official high and low records may vary slightly from our data, if they occured in-between our weather recording intervals... More about our weather records

Advertising

Arendal Weather History for the Previous 24 Hours

Scroll right to see more
 ConditionsComfort  
Time TempWeatherWind HumidityBarometerVisibility
8:00 PM
Sun, Sep 25
64 °FMild.12 mph84%30.03 "HgN/A
7:00 PM64 °FMild.12 mph87%30.03 "HgN/A
6:00 PM64 °FMild.9 mph87%30.03 "HgN/A
5:00 PM65 °FMild.9 mph85%30.03 "HgN/A
4:00 PM65 °FMild.10 mph81%30.04 "HgN/A
3:00 PM64 °FMild.9 mph82%30.05 "HgN/A
2:00 PM64 °FMild.8 mph82%30.06 "HgN/A
1:00 PM64 °FMild.8 mph82%30.06 "HgN/A
12:00 PM64 °FMild.3 mph83%30.07 "HgN/A
11:00 AM63 °FMild.3 mph86%30.06 "HgN/A
10:00 AM62 °FMild.6 mph87%30.06 "HgN/A
9:00 AM62 °FCool.6 mph89%30.06 "HgN/A
8:00 AM62 °FCool.7 mph91%30.06 "HgN/A
7:00 AM62 °FCool.7 mph92%30.06 "HgN/A
6:00 AM61 °FCool.8 mph92%30.06 "HgN/A
5:00 AM62 °FCool.8 mph91%30.06 "HgN/A
4:00 AM62 °FCool.8 mph92%30.06 "HgN/A
3:00 AM62 °FCool.8 mph91%30.07 "HgN/A
2:00 AM62 °FMild.10 mph91%30.07 "HgN/A
1:00 AM63 °FMild.10 mph88%30.08 "HgN/A
12:00 AM63 °FMild.13 mph86%30.08 "HgN/A
11:00 PM
Sat, Sep 24
63 °FMild.13 mph87%30.08 "HgN/A
10:00 PM63 °FMild.13 mph87%30.08 "HgN/A
9:00 PM63 °FMild.12 mph87%30.08 "HgN/A
Weather by CustomWeather, © 2016

See weather overviewHow to use our weather pages